CAPE
1746 1702 1938 2110 2042 1952 2121 2009 1931 1955 1821 1688 1528 1541 2017 1710 1702 1674 1630 1496 1322 1373 1414 1573 1681 1638 1450 1320 1410 1344 1212 1390 930 528 879 659 438 336 1126 1218 912 917 682 584 581 336 438 330 49 44 48 1 20 0 0 0 0 0 0 0 0 0 0
1795 1874 1675 1421 1574 1662 2112 1859 1487 1262 1328 1336 1328 1338 1408 1775 1534 1643 1618 1595 1608 1548 1285 1272 1438 1554 1676 1560 1670 1663 1521 1542 1630 924 1090 648 351 1082 892 1262 1116 841 662 1070 748 952 206 315 165 4 2 8 0 0 0 0 0 0 0 0 0 0 0
1717 1628 1589 1614 1610 1632 1499 1416 1400 1315 1311 1323 1359 1251 1133 1022 1043 1754 1634 1649 1771 1617 1348 1317 1569 1788 1898 1918 1863 1776 1562 1597 1608 1531 1203 1500 1352 1223 994 803 669 794 636 862 773 526 300 358 266 15 3 1 0 0 0 0 0 0 0 0 0 0 0
1982 1761 1679 1571 1670 1553 1351 1359 1292 1454 1402 1294 1099 1185 1354 995 1163 1322 1794 1806 1667 1657 1447 1630 1850 1648 1819 1860 1886 1855 1717 1732 1692 1419 1481 1622 1505 1510 883 1007 1170 742 529 573 739 506 506 465 284 86 18 3 0 0 0 0 0 0 0 0 0 0 0
1925 1797 1727 1637 1493 1282 1356 1101 1291 1465 1453 1302 1219 1102 1100 1004 1135 1140 1183 1890 1827 1788 1648 1616 1737 1652 1783 1804 1814 1672 1682 1740 1773 1500 1631 1616 1546 1355 1259 598 775 718 784 392 506 408 467 434 340 244 40 2 0 0 0 0 0 0 0 0 0 0 0
1882 1768 1788 1730 1576 1402 1359 1295 1312 1278 1279 1096 1044 910 939 1221 894 997 1096 953 1498 1807 1572 1419 1433 1326 1443 1583 1693 1604 1668 1661 1538 1597 1611 1679 1520 1557 1084 701 810 867 536 769 794 556 392 302 391 354 29 2 0 0 0 0 0 0 0 0 0 0 0
1670 1594 1722 1653 1582 1467 1376 1307 1068 955 826 826 803 774 692 689 620 773 945 1030 1044 1690 1624 1476 1277 1350 1407 1417 1534 1526 1530 1454 1527 1539 1576 1686 1668 1758 821 630 1356 858 796 781 860 438 499 401 410 330 26 16 0 0 0 0 0 0 0 0 0 0 0
1543 1646 1505 1479 1415 1130 996 936 791 688 724 697 684 694 698 633 639 682 901 1015 1071 1021 1855 1749 1486 1450 1659 1231 1409 1562 1536 1636 1524 1620 1679 1574 1568 1385 637 463 808 789 948 730 870 543 467 481 466 271 32 2 0 0 0 0 0 0 0 0 0 0 0
1419 1328 1316 1166 1077 1033 903 806 810 767 820 672 832 630 652 584 625 639 873 890 1053 963 1120 1640 1826 1583 1300 1582 1424 1430 1713 1421 1731 1759 1640 1291 1382 1372 903 410 524 933 628 766 748 589 393 460 425 103 6 0 0 0 0 0 0 0 0 0 0 0 0
1294 1184 1168 1201 1056 942 879 772 712 803 782 610 616 603 560 444 502 470 553 791 1130 1109 1075 1029 952 1378 1740 1685 1384 1569 1179 1385 1658 1689 1281 1208 1046 969 955 1508 681 1039 872 952 573 607 415 312 330 79 4 0 0 0 0 0 0 0 0 0 0 0 0
1113 1173 1138 1149 968 879 852 793 732 659 528 470 537 519 407 405 374 426 368 682 936 959 1093 876 655 732 1207 1630 1245 1095 946 1458 1614 1682 900 851 1010 1603 1387 1462 926 869 777 646 722 805 321 278 120 57 0 5 0 0 0 0 0 0 0 0 0 0 0
1201 921 821 858 835 798 762 685 631 566 552 438 412 388 325 275 297 282 261 346 486 571 792 855 813 753 764 1099 1661 1389 1666 1650 1615 1854 1650 1610 1680 1534 1735 1647 1444 1150 1121 800 636 518 422 357 114 5 0 0 0 0 0 0 0 0 0 0 0 0 0
1128 1033 990 976 863 807 660 691 643 572 504 308 375 344 272 297 193 202 231 232 447 500 591 762 746 744 848 933 1314 1430 1567 1676 1616 1357 896 1097 1252 1447 1787 1750 1550 1325 1131 784 588 302 235 211 81 0 0 0 0 0 0 0 0 0 0 0 0 0 0
1213 1122 958 904 823 774 681 627 550 519 415 402 330 273 214 200 125 154 167 226 543 698 733 765 662 685 536 948 578 470 675 693 429 312 344 654 606 1269 1592 1600 1632 1560 1264 766 427 272 64 120 43 0 0 0 0 0 0 1 0 0 5 1 0 0 0
1406 1084 1087 866 782 847 736 658 711 504 499 433 278 181 161 154 41 89 136 204 282 290 383 483 595 504 379 422 507 492 347 184 124 112 292 280 810 1166 1661 1628 1545 1756 1275 766 501 54 3 1 0 0 0 0 0 0 0 0 1 3 0 10 1 0 0
1263 1207 1046 817 872 648 645 763 545 533 492 418 325 185 100 0 53 114 126 147 128 184 173 300 275 147 74 62 22 28 41 83 137 176 261 95 17 156 272 654 1238 1591 1435 1356 847 132 3 0 0 0 0 0 0 0 0 0 3 1 0 0 0 0 0
1312 933 827 773 784 780 732 644 561 502 384 297 123 114 0 0 17 109 92 88 114 72 80 126 92 20 0 0 0 0 26 71 55 33 1 0 0 0 22 40 284 1174 1398 1773 1315 370 154 18 1 0 0 0 0 0 0 0 0 20 8 0 0 0 0
1061 770 732 696 865 821 706 596 565 480 371 188 53 7 0 0 0 26 44 13 7 4 7 10 36 61 96 42 0 0 0 1 8 0 0 0 0 2 14 55 43 269 846 1406 1638 902 339 114 2 0 0 0 0 0 0 0 0 0 1 3 2 0 0
1112 995 957 980 992 706 564 533 504 414 124 56 12 0 0 0 0 0 0 0 2 5 1 0 1 0 20 39 27 5 0 0 0 0 0 0 0 3 11 11 396 311 332 323 380 587 413 670 176 6 0 0 0 0 0 0 0 0 0 0 0 0 0
1164 1159 1214 1169 983 555 543 479 330 126 36 8 0 0 0 0 0 0 0 0 0 0 0 0 0 0 0 1 14 29 44 5 0 0 0 0 0 0 0 14 133 295 214 218 478 613 772 772 436 201 7 4 0 0 0 0 0 0 0 0 0 0 0
553 486 427 383 429 571 518 294 79 5 0 0 0 0 0 0 0 0 0 0 0 0 0 0 0 0 0 0 0 10 64 64 17 7 3 0 0 0 0 0 16 23 52 82 139 382 595 301 156 115 21 62 15 0 0 0 0 0 0 2 0 0 0
398 235 153 193 202 151 152 144 38 0 0 0 0 0 0 0 0 0 0 0 0 0 33 150 0 0 0 0 0 0 7 41 51 44 16 0 0 0 0 0 4 40 1239 172 0 396 448 153 736 2 18 49 74 59 32 24 18 2 0 0 0 0 0
208 121 42 44 51 91 147 120 53 0 0 0 0 0 0 0 0 0 0 0 1 42 7 0 0 0 0 0 0 0 0 35 20 7 0 0 0 0 0 0 269 0 0 0 0 0 0 0 0 506 569 261 76 53 49 65 20 15 4 3 6 0 0
0 0 0 0 0 4 12 58 133 262 245 1 90 7 3 0 0 0 0 0 0 0 0 0 0 0 0 0 181 24 6 0 0 3 7 18 12 5 3 0 53 208 73 0 127 0 0 0 0 0 0 0 68 1181 268 35 67 81 38 28 38 25 27
0 0 0 0 0 0 1 0 0 2 16 1 267 335 195 116 72 74 4 0 0 0 0 0 0 0 0 0 0 2 2 4 14 78 90 43 31 22 18 32 80 141 30 1114 413 152 123 0 0 0 0 0 0 0 0 316 504 196 133 113 25 46 73
0 0 0 0 0 0 0 0 0 0 0 1 10 46 113 51 0 0 0 0 0 0 0 0 0 0 0 0 0 26 17 5 6 26 37 20 101 117 258 237 365 238 36 46 0 14 55 358 0 0 0 0 0 0 0 0 0 78 461 356 343 222 198
0 0 0 1 0 0 1 0 0 2 0 0 0 0 0 0 0 0 0 0 0 0 0 0 0 0 0 0 0 58 152 170 164 150 112 145 159 168 168 78 71 154 431 441 135 188 176 203 739 449 130 100 85 449 0 0 0 0 0 173 396 437 478
0 0 0 0 0 0 2 2 1 2 0 0 0 0 0 0 0 0 0 0 0 0 0 0 0 0 0 0 0 15 656 675 370 519 597 865 802 820 777 778 656 438 446 498 722 377 626 506 573 614 687 571 457 329 568 536 194 93 43 61 146 338 452
0 0 3 2 2 0 0 0 0 0 0 0 0 0 0 0 0 0 0 0 0 0 0 0 0 0 0 0 0 10 191 345 506 694 802 903 885 970 1002 1037 1028 1047 1153 902 260 0 0 67 436 749 664 650 554 533 593 714 644 400 824 1237 608 490 806
3 0 4 7 1 0 0 0 0 0 0 0 1 0 0 0 0 0 1 0 0 0 0 0 0 0 0 0 0 0 0 1 26 64 170 124 392 472 483 39 248 759 963 660 449 144 0 0 415 743 826 887 790 705 515 1598 492 0 0 0 0 0 0
2 3 9 7 1 1 1 0 0 0 0 0 2 0 0 0 0 2 8 16 22 25 0 0 0 0 0 0 0 0 0 0 0 0 0 0 0 38 0 0 0 23 286 61 58 0 0 0 245 884 1262 1066 1334 1399 1244 1395 870 553 30 0 0 0 0
0 0 0 1 1 0 0 0 0 0 0 0 0 0 0 0 0 0 10 18 30 44 59 63 73 30 28 12 0 31 0 0 0 0 0 0 0 0 0 4 0 0 0 0 0 0 0 0 52 580 651 487 1113 470 938 1014 1295 1054 797 626 391 263 102
0 0 0 0 0 0 0 0 0 0 0 0 1 1 0 0 0 0 0 0 0 51 78 82 81 73 70 71 68 50 3 44 0 0 0 0 0 0 0 0 0 0 0 0 0 0 0 0 0 0 190 677 924 1140 1067 892 974 1124 1200 972 730 352 192
0 0 0 0 0 1 0 2 0 0 0 0 0 0 1 1 0 0 0 0 0 0 0 20 83 58 0 0 0 0 0 0 0 0 0 0 0 0 0 0 0 0 0 0 0 0 0 0 0 0 0 0 335 0 142 247 634 387 416 502 535 669 660
0 0 0 0 0 0 0 0 0 2 2 0 0 0 0 0 0 0 0 0 0 0 0 0 0 0 0 3 2 0 0 0 0 0 0 0 0 0 0 0 0 0 0 0 0 0 0 0 0 1 0 0 0 0 0 0 0 138 310 250 431 468 502
0 1 1 1 0 0 0 0 0 0 0 0 0 0 0 0 0 0 0 0 0 0 0 0 0 0 0 0 1 4 1 0 0 0 0 0 0 0 0 0 0 0 0 0 0 0 0 0 0 0 0 0 0 0 0 0 0 0 18 80 80 125 130
0 0 0 0 0 0 0 0 0 0 0 0 0 0 0 0 0 0 0 0 0 0 0 0 0 0 0 0 0 0 0 0 0 0 0 0 2 0 0 0 0 0 0 0 0 0 0 0 0 0 0 0 0 0 1 2 0 0 0 1 9 37 58
Wind_Speed
11 13 13 13 14 15 16 17 17 17 18 18 17 17 18 17 16 16 14 13 13 13 13 11 12 12 12 13 15 13 14 11 14 12 10 13 12 8 10 13 12 14 16 10 16 15 18 17 nan nan nan nan nan nan nan nan nan nan nan nan nan nan nan
12 12 13 13 13 14 16 17 17 18 18 18 17 17 18 18 18 18 16 17 15 16 14 13 13 13 13 15 15 15 14 14 17 14 14 10 8 12 13 13 13 13 16 12 17 11 16 17 17 nan nan nan nan nan nan nan nan nan nan nan nan nan nan
10 10 11 12 13 14 15 17 18 18 18 18 18 18 18 18 19 19 18 18 17 17 14 14 14 14 14 15 15 14 14 14 17 15 12 11 9 12 12 11 12 13 14 14 12 12 16 16 16 nan nan nan nan nan nan nan nan nan nan nan nan nan nan
9 10 11 13 14 15 16 16 16 17 17 17 17 17 17 17 17 18 18 18 17 17 14 15 13 13 14 14 15 15 13 12 15 14 12 9 9 10 11 11 14 13 16 11 14 12 15 16 17 nan nan nan nan nan nan nan nan nan nan nan nan nan nan
9 10 12 13 14 15 16 16 16 16 17 17 16 16 16 17 17 17 19 19 18 16 14 13 13 13 13 13 13 13 12 11 11 12 11 9 7 8 9 17 13 16 18 14 7 10 15 17 16 18 nan nan nan nan nan nan nan nan nan nan nan nan nan
9 10 11 13 13 15 16 17 18 18 19 18 18 18 19 19 18 19 18 17 17 15 13 13 12 12 12 11 12 11 11 10 11 11 11 10 10 12 18 15 14 14 15 12 9 5 16 15 18 18 nan nan nan nan nan nan nan nan nan nan nan nan nan
9 9 10 11 13 14 16 18 19 20 21 21 21 21 21 19 18 18 18 16 16 15 13 12 11 11 11 11 12 10 10 10 10 10 11 11 12 14 17 12 12 13 12 11 7 14 17 16 18 18 nan nan nan nan nan nan nan nan nan nan nan nan nan
10 9 9 11 13 15 17 19 21 21 22 22 21 22 21 18 17 16 16 15 15 14 15 13 12 11 10 10 11 9 9 9 10 11 11 11 12 12 14 9 11 10 12 9 6 12 17 16 18 18 nan nan nan nan nan nan nan nan nan nan nan nan nan
10 10 11 12 14 16 18 19 21 21 21 20 20 19 19 17 16 15 14 14 15 15 14 14 12 10 10 10 9 8 7 9 9 9 11 12 11 10 9 12 10 9 11 9 9 14 16 17 18 19 nan nan nan nan nan nan nan nan nan nan nan nan nan
11 11 13 15 16 16 17 17 18 18 18 16 16 16 17 16 15 13 13 14 14 14 14 14 13 12 11 9 9 9 7 6 7 9 12 12 10 9 7 14 13 12 13 11 12 18 19 16 18 nan nan nan nan nan nan nan nan nan nan nan nan nan nan
14 14 14 15 14 14 14 13 13 13 12 13 13 14 14 15 15 14 13 13 13 13 13 13 12 13 11 11 11 10 9 7 8 11 12 13 11 13 14 16 11 16 19 18 17 19 21 18 20 nan nan nan nan nan nan nan nan nan nan nan nan nan nan
15 15 15 14 13 12 12 12 11 12 12 12 12 13 13 14 15 14 13 12 11 11 12 13 13 13 12 12 13 13 14 12 11 12 13 15 17 16 17 17 16 19 20 19 21 19 20 20 21 nan nan nan nan nan nan nan nan nan nan nan nan nan nan
15 15 14 14 13 13 13 13 12 12 13 12 13 12 12 12 13 13 11 9 8 7 7 10 11 12 13 13 14 14 14 12 11 12 13 14 14 14 15 16 16 18 19 19 20 20 20 21 nan nan nan nan nan nan nan nan nan nan nan nan nan nan nan
16 15 14 14 14 15 15 14 13 12 12 12 11 10 10 11 12 11 9 7 6 6 7 8 10 11 12 13 12 11 11 9 8 9 10 10 11 11 13 14 16 16 17 17 19 19 nan 21 nan nan nan nan nan nan nan nan nan nan nan nan nan nan nan
16 16 15 15 16 18 18 16 14 13 12 11 9 9 10 12 nan nan 10 11 10 10 10 11 11 11 11 12 12 12 10 9 7 9 8 10 11 11 13 14 16 16 15 15 17 nan nan nan nan nan nan nan nan nan nan nan nan nan nan nan nan nan nan
19 18 17 17 17 18 18 17 15 14 13 12 11 10 nan nan nan 12 13 14 14 15 14 14 14 13 nan nan nan nan nan nan 10 10 11 nan nan 14 15 14 16 16 14 13 15 15 nan nan nan nan nan nan nan nan nan nan nan nan nan nan nan nan nan
20 19 19 19 18 18 18 17 17 16 16 14 14 14 nan nan nan 14 nan nan 15 nan nan 15 nan nan nan nan nan nan nan nan nan nan nan nan nan nan nan nan 15 15 14 13 15 15 16 nan nan nan nan nan nan nan nan nan nan nan nan nan nan nan nan
19 19 19 20 19 18 18 18 18 18 18 17 nan nan nan nan nan nan nan nan nan nan nan nan nan nan nan nan nan nan nan nan nan nan nan nan nan nan nan nan nan 16 14 14 15 15 16 15 nan nan nan nan nan nan nan nan nan nan nan nan nan nan nan
20 20 20 20 18 17 18 18 19 19 18 nan nan nan nan nan nan nan nan nan nan nan nan nan nan nan nan nan nan nan nan nan nan nan nan nan nan nan nan nan 18 18 17 15 15 15 15 15 14 nan nan nan nan nan nan nan nan nan nan nan nan nan nan
24 23 22 21 20 18 19 20 19 20 nan nan nan nan nan nan nan nan nan nan nan nan nan nan nan nan nan nan nan nan nan nan nan nan nan nan nan nan nan nan 20 20 19 18 18 17 16 16 15 15 nan nan nan nan nan nan nan nan nan nan nan nan nan
27 25 23 22 23 22 21 21 nan nan nan nan nan nan nan nan nan nan nan nan nan nan nan nan nan nan nan nan nan nan nan nan nan nan nan nan nan nan nan nan nan nan nan nan 20 20 19 19 18 18 nan nan nan nan nan nan nan nan nan nan nan nan nan
26 28 27 26 26 27 25 23 nan nan nan nan nan nan nan nan nan nan nan nan nan nan nan 24 nan nan nan nan nan nan nan nan nan nan nan nan nan nan nan nan nan nan 27 27 nan 26 26 24 20 nan nan nan nan nan nan nan nan nan nan nan nan nan nan
27 28 nan nan nan nan 29 27 nan nan nan nan nan nan nan nan nan nan nan nan nan nan nan nan nan nan nan nan nan nan nan nan nan nan nan nan nan nan nan nan 28 nan nan nan nan nan nan nan nan 23 23 22 nan nan nan nan nan nan nan nan nan nan nan
nan nan nan nan nan nan nan nan 32 29 25 nan nan nan nan nan nan nan nan nan nan nan nan nan nan nan nan nan 21 nan nan nan nan nan nan nan nan nan nan nan nan 28 nan nan 26 nan nan nan nan nan nan nan nan 24 23 nan nan nan nan nan nan nan nan
nan nan nan nan nan nan nan nan nan nan nan nan 27 27 25 24 nan nan nan nan nan nan nan nan nan nan nan nan nan nan nan nan nan nan nan nan nan nan nan nan nan 28 nan 28 27 28 29 nan nan nan nan nan nan nan nan 26 25 24 24 24 nan nan nan
nan nan nan nan nan nan nan nan nan nan nan nan nan nan 28 nan nan nan nan nan nan nan nan nan nan nan nan nan nan nan nan nan nan nan nan nan 27 28 28 28 28 27 nan nan nan nan nan 30 nan nan nan nan nan nan nan nan nan nan 28 27 27 26 25
nan nan nan nan nan nan nan nan nan nan nan nan nan nan nan nan nan nan nan nan nan nan nan nan nan nan nan nan nan nan 27 29 28 29 28 28 27 27 27 nan nan 28 29 30 29 29 29 29 32 33 32 nan nan 31 nan nan nan nan nan 31 29 29 30
nan nan nan nan nan nan nan nan nan nan nan nan nan nan nan nan nan nan nan nan nan nan nan nan nan nan nan nan nan nan 31 29 29 30 30 30 29 30 30 30 29 28 31 31 38 40 34 32 32 32 32 32 31 31 32 33 33 nan nan nan 32 31 32
nan nan nan nan nan nan nan nan nan nan nan nan nan nan nan nan nan nan nan nan nan nan nan nan nan nan nan nan nan nan 33 32 32 32 32 32 30 31 32 32 32 32 34 38 44 nan nan nan 34 33 32 33 33 33 34 36 37 38 37 37 36 36 39
nan nan nan nan nan nan nan nan nan nan nan nan nan nan nan nan nan nan nan nan nan nan nan nan nan nan nan nan nan nan nan nan nan nan 33 32 32 33 35 nan 35 35 35 44 42 45 nan nan 37 36 36 34 35 35 35 42 47 nan nan nan nan nan nan
nan nan nan nan nan nan nan nan nan nan nan nan nan nan nan nan nan nan nan nan nan nan nan nan nan nan nan nan nan nan nan nan nan nan nan nan nan nan nan nan nan nan 40 nan nan nan nan nan 39 38 38 38 37 38 39 41 48 46 nan nan nan nan nan
nan nan nan nan nan nan nan nan nan nan nan nan nan nan nan nan nan nan nan nan nan nan nan nan nan nan nan nan nan nan nan nan nan nan nan nan nan nan nan nan nan nan nan nan nan nan nan nan nan 41 41 40 42 39 40 42 45 48 50 49 49 49 49
nan nan nan nan nan nan nan nan nan nan nan nan nan nan nan nan nan nan nan nan nan nan nan nan nan nan nan nan nan nan nan nan nan nan nan nan nan nan nan nan nan nan nan nan nan nan nan nan nan nan 46 45 45 45 51 49 50 50 48 52 51 52 52
nan nan nan nan nan nan nan nan nan nan nan nan nan nan nan nan nan nan nan nan nan nan nan nan nan nan nan nan nan nan nan nan nan nan nan nan nan nan nan nan nan nan nan nan nan nan nan nan nan nan nan nan 49 nan 56 53 52 60 54 52 51 52 54
nan nan nan nan nan nan nan nan nan nan nan nan nan nan nan nan nan nan nan nan nan nan nan nan nan nan nan nan nan nan nan nan nan nan nan nan nan nan nan nan nan nan nan nan nan nan nan nan nan nan nan nan nan nan nan nan nan 56 54 56 57 58 58
nan nan nan nan nan nan nan nan nan nan nan nan nan nan nan nan nan nan nan nan nan nan nan nan nan nan nan nan nan nan nan nan nan nan nan nan nan nan nan nan nan nan nan nan nan nan nan nan nan nan nan nan nan nan nan nan nan nan nan nan nan 58 58
nan nan nan nan nan nan nan nan nan nan nan nan nan nan nan nan nan nan nan nan nan nan nan nan nan nan nan nan nan nan nan nan nan nan nan nan nan nan nan nan nan nan nan nan nan nan nan nan nan nan nan nan nan nan nan nan nan nan nan nan nan nan nan
Wind_Direction
263 265 270 270 271 276 280 282 279 277 276 276 275 276 271 271 264 263 262 261 264 268 266 265 264 266 264 263 264 263 256 246 275 281 278 260 278 270 269 269 265 282 297 308 287 298 290 295 nan nan nan nan nan nan nan nan nan nan nan nan nan nan nan
259 262 267 270 275 280 284 283 283 278 277 276 275 271 269 267 269 267 269 269 271 273 272 269 266 266 266 266 266 262 262 253 243 259 266 278 287 280 280 270 271 284 293 286 287 295 291 290 291 nan nan nan nan nan nan nan nan nan nan nan nan nan nan
262 273 281 288 289 289 288 285 283 281 279 275 271 266 262 265 267 269 271 273 274 273 274 270 268 265 264 264 267 263 261 260 253 257 260 257 265 264 268 261 278 280 289 281 286 284 281 288 291 nan nan nan nan nan nan nan nan nan nan nan nan nan nan
281 288 289 293 289 289 286 283 282 278 274 270 265 263 263 264 269 275 275 276 275 273 271 271 267 266 264 261 261 262 263 261 258 265 256 256 253 260 263 262 247 257 265 293 290 294 287 284 285 nan nan nan nan nan nan nan nan nan nan nan nan nan nan
289 286 291 290 291 291 290 288 280 271 266 261 258 260 268 273 276 278 281 280 276 274 270 264 260 258 255 257 259 262 263 261 257 260 255 253 249 242 265 255 257 253 258 259 229 275 293 286 288 289 nan nan nan nan nan nan nan nan nan nan nan nan nan
285 285 283 284 286 285 285 282 274 266 261 258 258 264 272 280 277 278 278 276 272 268 263 257 255 253 250 249 252 256 261 264 258 255 251 247 245 232 226 243 261 265 265 270 274 283 281 285 287 289 nan nan nan nan nan nan nan nan nan nan nan nan nan
272 272 273 276 280 276 273 271 266 260 258 258 262 267 273 275 271 269 267 265 267 268 266 261 257 253 248 244 247 247 256 257 252 256 249 247 248 252 248 249 249 256 255 260 258 287 285 289 286 291 nan nan nan nan nan nan nan nan nan nan nan nan nan
254 255 262 265 268 265 260 259 255 254 254 257 262 265 268 266 262 262 262 263 263 265 267 264 261 257 249 245 247 244 250 252 256 257 253 255 258 268 278 271 262 257 273 266 266 282 283 282 284 290 nan nan nan nan nan nan nan nan nan nan nan nan nan
244 248 252 257 257 256 254 253 250 250 252 256 258 262 260 260 260 261 262 264 264 265 268 271 274 268 266 252 246 242 237 239 245 265 256 262 262 272 288 292 268 280 290 281 296 287 285 284 287 291 nan nan nan nan nan nan nan nan nan nan nan nan nan
252 253 252 254 255 253 253 250 253 252 253 256 255 252 253 253 256 258 262 266 267 265 266 265 267 266 266 257 246 250 235 229 238 259 259 262 266 281 289 288 293 299 292 303 297 289 282 284 288 nan nan nan nan nan nan nan nan nan nan nan nan nan nan
255 254 250 250 250 254 255 256 256 259 257 250 245 243 247 253 254 254 259 264 264 263 262 261 261 263 266 262 268 272 285 274 260 265 275 286 290 279 278 278 280 286 288 290 285 288 292 298 295 nan nan nan nan nan nan nan nan nan nan nan nan nan nan
262 258 252 252 255 261 266 266 267 258 253 248 243 242 245 252 253 252 252 257 257 259 256 253 253 255 260 259 263 263 267 272 273 272 276 277 279 283 284 286 286 281 282 284 283 287 289 290 290 nan nan nan nan nan nan nan nan nan nan nan nan nan nan
267 260 257 263 267 269 270 269 267 261 253 246 244 244 244 245 242 241 243 243 248 253 259 254 253 255 256 258 262 264 268 273 276 277 276 275 276 283 288 291 293 288 289 290 290 290 291 290 nan nan nan nan nan nan nan nan nan nan nan nan nan nan nan
266 260 262 268 269 268 267 267 263 256 252 244 243 239 234 226 221 222 235 244 261 270 272 267 254 252 256 256 257 258 264 267 269 271 272 278 278 286 292 296 296 293 295 297 295 295 nan 296 nan nan nan nan nan nan nan nan nan nan nan nan nan nan nan
258 252 255 262 265 266 267 267 263 259 254 248 239 234 226 220 nan nan 230 245 259 267 274 271 262 253 254 255 254 247 251 260 263 269 264 278 281 281 286 291 293 292 298 298 299 nan nan nan nan nan nan nan nan nan nan nan nan nan nan nan nan nan nan
252 249 248 250 258 263 266 267 266 263 259 255 246 239 nan nan nan 237 243 247 253 255 257 258 254 251 nan nan nan nan nan nan 256 265 273 nan nan 281 281 280 287 289 290 296 298 306 nan nan nan nan nan nan nan nan nan nan nan nan nan nan nan nan nan
255 252 246 244 254 258 261 262 261 262 260 257 257 248 nan nan nan 252 nan nan 252 nan nan 248 nan nan nan nan nan nan nan nan nan nan nan nan nan nan nan nan 280 286 290 295 298 298 300 nan nan nan nan nan nan nan nan nan nan nan nan nan nan nan nan
257 254 248 244 249 252 257 258 256 258 257 258 nan nan nan nan nan nan nan nan nan nan nan nan nan nan nan nan nan nan nan nan nan nan nan nan nan nan nan nan nan 279 285 289 293 293 293 297 nan nan nan nan nan nan nan nan nan nan nan nan nan nan nan
253 252 247 243 244 246 250 254 255 252 255 nan nan nan nan nan nan nan nan nan nan nan nan nan nan nan nan nan nan nan nan nan nan nan nan nan nan nan nan nan 268 270 275 280 285 287 292 294 287 nan nan nan nan nan nan nan nan nan nan nan nan nan nan
246 246 242 237 234 239 244 247 251 251 nan nan nan nan nan nan nan nan nan nan nan nan nan nan nan nan nan nan nan nan nan nan nan nan nan nan nan nan nan nan 266 267 270 270 273 281 286 286 283 279 nan nan nan nan nan nan nan nan nan nan nan nan nan
243 243 241 239 237 237 241 243 nan nan nan nan nan nan nan nan nan nan nan nan nan nan nan nan nan nan nan nan nan nan nan nan nan nan nan nan nan nan nan nan nan nan nan nan 272 275 277 280 276 278 nan nan nan nan nan nan nan nan nan nan nan nan nan
242 245 243 242 242 241 242 244 nan nan nan nan nan nan nan nan nan nan nan nan nan nan nan 224 nan nan nan nan nan nan nan nan nan nan nan nan nan nan nan nan nan nan 256 253 nan 247 249 248 265 nan nan nan nan nan nan nan nan nan nan nan nan nan nan
246 246 nan nan nan nan 243 247 nan nan nan nan nan nan nan nan nan nan nan nan nan nan nan nan nan nan nan nan nan nan nan nan nan nan nan nan nan nan nan nan 259 nan nan nan nan nan nan nan nan 253 259 271 nan nan nan nan nan nan nan nan nan nan nan
nan nan nan nan nan nan nan nan 242 237 237 nan nan nan nan nan nan nan nan nan nan nan nan nan nan nan nan nan 225 nan nan nan nan nan nan nan nan nan nan nan nan 264 nan nan 265 nan nan nan nan nan nan nan nan 259 267 nan nan nan nan nan nan nan nan
nan nan nan nan nan nan nan nan nan nan nan nan 236 238 242 247 nan nan nan nan nan nan nan nan nan nan nan nan nan nan nan nan nan nan nan nan nan nan nan nan nan 260 nan 257 256 272 277 nan nan nan nan nan nan nan nan 262 262 268 272 272 nan nan nan
nan nan nan nan nan nan nan nan nan nan nan nan nan nan 240 nan nan nan nan nan nan nan nan nan nan nan nan nan nan nan nan nan nan nan nan nan 254 257 258 260 261 259 nan nan nan nan nan 276 nan nan nan nan nan nan nan nan nan nan 259 265 269 270 272
nan nan nan nan nan nan nan nan nan nan nan nan nan nan nan nan nan nan nan nan nan nan nan nan nan nan nan nan nan nan 250 253 253 255 255 256 258 259 259 nan nan 262 264 265 266 269 269 269 275 278 278 nan nan 281 nan nan nan nan nan 267 267 270 274
nan nan nan nan nan nan nan nan nan nan nan nan nan nan nan nan nan nan nan nan nan nan nan nan nan nan nan nan nan nan 252 252 255 255 255 254 254 254 255 255 255 256 259 262 258 256 260 266 270 274 275 277 277 275 277 278 278 nan nan nan 277 275 274
nan nan nan nan nan nan nan nan nan nan nan nan nan nan nan nan nan nan nan nan nan nan nan nan nan nan nan nan nan nan 252 252 252 253 254 254 254 256 256 256 258 261 263 265 262 nan nan nan 269 273 277 277 276 276 275 275 276 276 271 270 274 273 270
nan nan nan nan nan nan nan nan nan nan nan nan nan nan nan nan nan nan nan nan nan nan nan nan nan nan nan nan nan nan nan nan nan nan 253 253 257 258 258 nan 257 261 265 267 260 260 nan nan 273 275 276 277 275 275 273 273 274 nan nan nan nan nan nan
nan nan nan nan nan nan nan nan nan nan nan nan nan nan nan nan nan nan nan nan nan nan nan nan nan nan nan nan nan nan nan nan nan nan nan nan nan nan nan nan nan nan 266 nan nan nan nan nan 274 277 277 276 278 276 275 275 273 272 nan nan nan nan nan
nan nan nan nan nan nan nan nan nan nan nan nan nan nan nan nan nan nan nan nan nan nan nan nan nan nan nan nan nan nan nan nan nan nan nan nan nan nan nan nan nan nan nan nan nan nan nan nan nan 277 278 279 278 278 278 275 278 279 280 281 282 283 283
nan nan nan nan nan nan nan nan nan nan nan nan nan nan nan nan nan nan nan nan nan nan nan nan nan nan nan nan nan nan nan nan nan nan nan nan nan nan nan nan nan nan nan nan nan nan nan nan nan nan 275 279 279 280 273 274 274 274 278 282 282 284 285
nan nan nan nan nan nan nan nan nan nan nan nan nan nan nan nan nan nan nan nan nan nan nan nan nan nan nan nan nan nan nan nan nan nan nan nan nan nan nan nan nan nan nan nan nan nan nan nan nan nan nan nan 277 nan 268 273 275 278 277 277 277 279 281
nan nan nan nan nan nan nan nan nan nan nan nan nan nan nan nan nan nan nan nan nan nan nan nan nan nan nan nan nan nan nan nan nan nan nan nan nan nan nan nan nan nan nan nan nan nan nan nan nan nan nan nan nan nan nan nan nan 273 276 278 277 279 281
nan nan nan nan nan nan nan nan nan nan nan nan nan nan nan nan nan nan nan nan nan nan nan nan nan nan nan nan nan nan nan nan nan nan nan nan nan nan nan nan nan nan nan nan nan nan nan nan nan nan nan nan nan nan nan nan nan nan nan nan nan 279 280
nan nan nan nan nan nan nan nan nan nan nan nan nan nan nan nan nan nan nan nan nan nan nan nan nan nan nan nan nan nan nan nan nan nan nan nan nan nan nan nan nan nan nan nan nan nan nan nan nan nan nan nan nan nan nan nan nan nan nan nan nan nan nan